Location: Mount Kobau Star Party
(49.1167°N, 119.7333°W)
Time: 11:53:21
(UTC-07:00)

BlueWalker 3 - Pass Details

Date: 25 February 2024
Orbit: 485 x 496 km, 53.2° (Epoch: 11 April)

Event Time Altitude Azimuth Distance (km) Brightness Sun altitude
Rises 19:51:17 0° 290° (WNW) 2,554 7.0 -22.9°
Reaches altitude 10° 19:53:30 10° 295° (WNW) 1,671 5.6 -23.2°
Enters shadow 19:56:36 46° 339° (NNW) 656 2.6 -23.7°
